Flag for Hong Kong Weather past 2 weeks in Hong Kong, Hong Kong

Now
91 °F

Passing clouds.


Feels Like: 105 °F
Forecast: 81 / 87 °F
Wind: 10 mph from Southwest

Location: National Airport

Current Time: May 25, 2015 at 2:13:38 PM

Latest Report: May 25, 2015 at 2:00 PM


Visibility: N/A

Pressure: 29.68 "Hg

Humidity: 63%

Dew point: 77 °F

Location of Hong KongLocation

Historic Weather in Hong Kong — Graph

°F

Hong Kong temperature yesterday

Maximum temperature yesterday: 84 °F (at 7:30 AM)
Minimum temperature yesterday: 77 °F (at 4:30 PM)
Average temperature yesterday: 82 °F

Past Weeks' High & Low Weather Summary

 TemperatureHumidityPressure
High91 °F (May 15, 1:00 PM)100% (May 20, 8:00 PM)29.95 "Hg (May 20, 8:00 PM)
Low73 °F (May 11, 6:00 PM)42% (May 12, 4:00 PM)29.65 "Hg (May 19, 5:30 PM)
Average82 °F78%29.78 "Hg
* Reported May 10 1:00 PM — May 25 1:00 PM, Hong Kong, Weather by CustomWeather, © 2015

Note: Actual official high and low records may vary slightly from our data, if they occured in-between our weather recording intervals... More about our weather records

Advertising

Hong Kong weather history for previous 24 hours

 ConditionsComfort  
Time TempWeatherWind HumidityBarometerVisibility
1:00 PM
Mon, May 25
90 °FPassing clouds.6 mph67%29.71 "HgN/A
12:30 PM90 °FScattered clouds.5 mph67%29.71 "HgN/A
12:00 PM88 °FScattered clouds.5 mph75%29.71 "HgN/A
11:30 AM88 °FScattered clouds.5 mph75%29.74 "HgN/A
11:00 AM86 °FScattered clouds.5 mph79%29.74 "Hg6 mi
10:30 AM88 °FScattered clouds.5 mph75%29.74 "Hg5 mi
10:00 AM86 °FScattered clouds.6 mph79%29.74 "Hg4 mi
9:30 AM86 °FScattered clouds.5 mph79%29.74 "Hg6 mi
9:00 AM84 °FScattered clouds.3 mph84%29.74 "Hg4 mi
8:30 AM84 °FScattered clouds.5 mph84%29.74 "Hg3 mi
8:00 AM82 °FFog.5 mph89%29.71 "Hg3 mi
7:30 AM82 °FPassing clouds.3 mph89%29.71 "HgN/A
7:00 AM82 °FPassing clouds.2 mph89%29.71 "HgN/A
6:30 AM81 °FPassing clouds.3 mph89%29.71 "HgN/A
6:00 AM82 °FSleet. Passing clouds.2 mph84%29.68 "HgN/A
5:30 AM81 °FPassing clouds.3 mph89%29.68 "HgN/A
5:00 AM81 °FPassing clouds.2 mph89%29.68 "Hg5 mi
4:30 AM82 °FPassing clouds.1 mph89%29.68 "Hg5 mi
4:00 AM82 °FPassing clouds.2 mph89%29.68 "Hg3 mi
3:30 AM81 °FPassing clouds.5 mph94%29.68 "Hg5 mi
3:00 AM82 °FPassing clouds.3 mph89%29.68 "Hg6 mi
2:30 AM82 °FPassing clouds.5 mph89%29.68 "Hg5 mi
2:00 AM82 °FPassing clouds.2 mph89%29.68 "HgN/A
1:30 AM81 °FPassing clouds.3 mph89%29.68 "HgN/A
1:00 AM84 °FPassing clouds.2 mph84%29.71 "HgN/A
12:30 AM82 °FPassing clouds.5 mph89%29.71 "Hg5 mi
12:00 AM82 °FPassing clouds.1 mph89%29.71 "HgN/A
11:30 PM
Sun, May 24
82 °FPassing clouds.5 mph89%29.71 "Hg6 mi
11:00 PM84 °FPassing clouds.3 mph84%29.74 "Hg5 mi
10:30 PM84 °FPassing clouds.5 mph84%29.74 "HgN/A
10:00 PM82 °FSprinkles. Passing clouds.6 mph89%29.74 "HgN/A
9:30 PM82 °FPassing clouds.5 mph84%29.74 "HgN/A
9:00 PM81 °FPassing clouds.6 mph84%29.71 "HgN/A
8:30 PM81 °FPassing clouds.5 mph84%29.71 "HgN/A
8:00 PM81 °FPassing clouds.5 mph84%29.71 "HgN/A
7:30 PM81 °FPassing clouds.3 mph84%29.71 "HgN/A
7:00 PM79 °FPassing clouds.7 mph89%29.68 "HgN/A
6:30 PM81 °FScattered clouds.7 mph89%29.68 "HgN/A
6:00 PM81 °FScattered clouds.2 mph89%29.68 "HgN/A
5:30 PM79 °FSprinkles. Scattered clouds.5 mph94%29.65 "HgN/A
5:00 PM79 °FThundershowers. Scattered clouds.8 mph89%29.68 "HgN/A
4:30 PM77 °FThunderstorms. Broken clouds.16 mph94%29.68 "Hg3 mi
4:00 PM84 °FThunderstorms. Fog.5 mph84%29.68 "Hg2 mi
3:30 PM84 °FFog.5 mph79%29.68 "Hg2 mi
3:00 PM84 °FFog.3 mph79%29.68 "Hg2 mi
2:30 PM84 °FFog.5 mph84%29.68 "Hg2 mi
2:00 PM84 °FFog.3 mph79%29.68 "Hg2 mi
Weather by CustomWeather, © 2015

See weather overviewHow to use our weather pages